FW2818 Weather Reports


time (UTC)temp
F
wind
direction
speed
knots
gust
knots
rain 1hr
in
rain 24hr
in
rain mn
in
humidity
%
barometer
mb
20260503220509 65 232 4.3 12.2 0.00 0.00 0.00 58 1011.1
20260503220009 64 244 6.1 11.3 0.00 0.00 0.00 60 1011.0
20260503215008 65 223 7.0 12.2 0.00 0.00 0.00 60 1011.1
20260503214508 65 216 2.6 11.3 0.00 0.00 0.00 59 1011.2
20260503214009 65 217 7.0 12.2 0.00 0.00 0.00 60 1011.1
20260503213008 65 213 5.2 11.3 0.00 0.00 0.00 59 1011.0
20260503212509 65 275 6.1 13.0 0.00 0.00 0.00 60 1011.1
20260503211007 65 232 9.6 13.0 0.00 0.00 0.00 60 1010.9
20260503210007 65 218 9.6 13.9 0.00 0.00 0.00 58 1010.9
20260503205507 66 222 8.7 11.3 0.00 0.00 0.00 58 1010.9
20260503205008 65 234 4.3 13.0 0.00 0.00 0.00 60 1011.0
20260503204506 65 360 4.3 13.0 0.00 0.00 0.00 58 1010.8
20260503204012 65 226 2.6 12.2 0.00 0.00 0.00 58 1011.0
20260503203507 65 248 9.6 12.2 0.00 0.00 0.00 59 1010.9
20260503203006 64 168 6.1 12.2 0.00 0.00 0.00 60 1010.9
20260503202507 64 196 2.6 14.8 0.00 0.00 0.00 61 1010.9
20260503202006 64 258 7.0 14.8 0.00 0.00 0.00 59 1010.9
20260503201510 65 219 5.2 13.9 0.00 0.00 0.00 60 1011.0
20260503200506 64 360 3.5 12.2 0.00 0.00 0.00 61 1011.1
20260503200005 64 360 7.8 12.2 0.00 0.00 0.00 61 1011.1
20260503195005 63 233 3.5 12.2 0.00 0.00 0.00 63 1011.3
20260503194506 62 360 4.3 12.2 0.00 0.00 0.00 63 1011.3
20260503194005 62 360 5.2 13.9 0.00 0.00 0.00 64 1011.2
20260503193504 62 311 8.7 13.9 0.00 0.00 0.00 64 1011.3
20260503193006 62 187 10.4 13.9 0.00 0.00 0.00 64 1011.2
20260503191504 63 215 12.2 13.9 0.00 0.00 0.00 62 1011.5
20260503191003 63 360 5.2 12.2 0.00 0.00 0.00 62 1011.5
20260503190504 62 168 5.2 10.4 0.00 0.00 0.00 64 1011.4
20260503185504 62 193 6.1 13.9 0.00 0.00 0.00 66 1011.5
20260503185003 61 192 6.1 13.9 0.00 0.00 0.00 66 1011.5
20260503184504 61 207 9.6 12.2 0.00 0.00 0.00 68 1011.5
20260503184003 60 152 3.5 12.2 0.00 0.00 0.00 71 1011.5
20260503183503 60 161 4.3 11.3 0.00 0.00 0.00 71 1011.5
20260503183003 60 360 5.2 11.3 0.00 0.00 0.00 72 1011.6
20260503182005 60 239 9.6 16.5 0.00 0.00 0.00 72 1011.6
20260503181504 60 218 2.6 16.5 0.00 0.00 0.00 71 1011.5
20260503181002 60 188 9.6 12.2 0.00 0.00 0.00 72 1011.5
20260503180502 59 193 6.1 12.2 0.00 0.00 0.00 73 1011.4
20260503180005 59 237 2.6 12.2 0.00 0.00 0.00 73 1011.5
20260503175502 59 206 7.8 11.3 0.00 0.00 0.00 73 1011.5
20260503175002 59 360 7.0 12.2 0.00 0.00 0.00 73 1011.4
20260503174501 59 175 9.6 12.2 0.00 0.00 0.00 73 1011.4
20260503174001 59 189 3.5 12.2 0.00 0.00 0.00 73 1011.3
20260503173502 58 207 1.7 12.2 0.00 0.00 0.00 74 1011.3
20260503173001 58 194 7.8 13.0 0.00 0.00 0.00 74 1011.2
20260503172501 59 196 4.3 13.0 0.00 0.00 0.00 73 1011.2
20260503172001 59 148 4.3 13.9 0.00 0.00 0.00 73 1011.2
20260503171501 59 193 6.1 13.9 0.00 0.00 0.00 73 1011.2
20260503171000 59 150 8.7 11.3 0.00 0.00 0.00 73 1011.2
20260503170500 59 173 8.7 13.0 0.00 0.00 0.00 73 1011.1
20260503150957 55 184 3.5 10.4 0.00 0.00 0.00 78 1010.8
20260503150457 55 220 7.8 10.4 0.00 0.00 0.00 79 1010.8
20260503130954 54 196 4.3 9.6 0.00 0.00 0.00 79 1009.4
20260503110450 54 221 5.2 8.7 0.00 0.00 0.00 80 1009.4
20260503090446 54 238 7.8 13.0 0.00 0.00 0.00 80 1009.7
20260503081445 54 200 7.8 10.4 0.00 0.00 0.00 81 1009.8
20260503080945 54 225 2.6 7.8 0.00 0.00 0.00 81 1009.9
20260503080446 54 214 6.1 8.7 0.00 0.00 0.00 81 1009.9
20260503072513 55 242 3.5 7.0 0.00 0.00 0.00 81 1010.1
20260503072017 55 177 1.7 8.7 0.00 0.00 0.00 81 1010.1
20260503071013 55 178 6.1 10.4 0.00 0.00 0.00 81 1010.1
20260503070514 55 360 5.2 9.6 0.00 0.00 0.00 81 1010.2
20260503055011 54 360 4.3 10.4 0.00 0.00 0.00 80 1010.6
20260503054011 54 213 3.5 9.6 0.00 0.00 0.00 80 1010.6
20260503052511 55 186 5.2 9.6 0.00 0.00 0.00 79 1010.7
20260503052010 55 200 4.3 10.4 0.00 0.00 0.00 79 1010.7
20260503051510 55 167 9.6 10.4 0.00 0.00 0.00 79 1010.8
20260503051009 55 176 3.5 10.4 0.00 0.00 0.00 79 1010.7
20260503050511 55 232 2.6 8.7 0.00 0.00 0.00 79 1010.7
20260503044510 55 360 4.3 10.4 0.00 0.00 0.00 79 1010.5
20260503044008 55 174 4.3 10.4 0.00 0.00 0.00 80 1010.4
20260503043508 55 158 5.2 7.8 0.00 0.00 0.00 80 1010.5
20260503043010 55 198 2.6 10.4 0.00 0.00 0.00 80 1010.3
20260503042508 55 206 5.2 10.4 0.00 0.00 0.00 80 1010.3
20260503042008 55 227 2.6 7.8 0.00 0.00 0.00 80 1010.3
20260503041509 55 184 1.7 7.8 0.00 0.00 0.00 80 1010.3
20260503041008 55 263 3.5 7.8 0.00 0.00 0.00 80 1010.3
20260503035507 55 242 3.5 7.8 0.00 0.00 0.00 79 1010.2
20260503035008 55 184 4.3 9.6 0.00 0.00 0.00 79 1010.1
20260503034508 55 185 2.6 9.6 0.00 0.00 0.00 79 1010.1
20260503033007 55 178 1.7 7.0 0.00 0.00 0.00 79 1009.9
20260503032506 55 237 3.5 11.3 0.00 0.00 0.00 79 1009.8
20260503032006 55 199 3.5 11.3 0.00 0.00 0.00 79 1009.8
20260503031506 55 229 7.8 11.3 0.00 0.00 0.00 79 1009.7
20260503031006 56 232 8.7 8.7 0.00 0.00 0.00 78 1009.6
20260503030006 56 201 5.2 12.2 0.00 0.00 0.00 78 1009.5
20260503025506 56 240 7.0 12.2 0.00 0.00 0.00 77 1009.4
20260503025008 56 275 1.7 9.6 0.00 0.00 0.00 76 1009.5
20260503024005 56 184 3.5 10.4 0.00 0.00 0.00 76 1009.4
20260503023506 56 209 3.5 12.2 0.00 0.00 0.00 75 1009.4
20260503023005 56 201 3.5 12.2 0.00 0.00 0.00 75 1009.4
20260503022005 57 238 8.7 13.0 0.00 0.00 0.00 73 1009.4
20260503021506 57 206 5.2 13.9 0.00 0.00 0.00 73 1009.4
20260503021005 57 234 5.2 13.9 0.00 0.00 0.00 72 1009.4
20260503020505 58 171 7.0 13.9 0.00 0.00 0.00 72 1009.3
20260503020004 58 236 13.9 13.9 0.00 0.00 0.00 71 1009.3
20260503015504 58 238 7.8 13.9 0.00 0.00 0.00 71 1009.3
20260503015006 58 192 5.2 13.9 0.00 0.00 0.00 71 1009.3
20260503014004 59 184 5.2 13.9 0.00 0.00 0.00 71 1009.3
20260503013505 59 244 7.0 13.9 0.00 0.00 0.00 70 1009.3
20260503013004 59 254 7.8 13.0 0.00 0.00 0.00 70 1009.4
20260503012504 59 209 6.1 13.0 0.00 0.00 0.00 70 1009.3
20260503012003 60 235 7.8 12.2 0.00 0.00 0.00 70 1009.4
20260503011504 60 236 6.1 12.2 0.00 0.00 0.00 69 1009.3
20260503011003 60 246 9.6 13.0 0.00 0.00 0.00 69 1009.3
20260503010503 60 261 9.6 13.0 0.00 0.00 0.00 69 1009.3
20260503010002 60 222 3.5 13.9 0.00 0.00 0.00 69 1009.3
20260503005503 61 259 11.3 13.9 0.00 0.00 0.00 69 1009.3
20260503004502 61 234 5.2 14.8 0.00 0.00 0.00 67 1009.4
20260503004002 61 212 7.8 13.9 0.00 0.00 0.00 67 1009.3
20260503003502 62 252 6.1 13.9 0.00 0.00 0.00 66 1009.3
20260503003002 62 227 7.8 13.0 0.00 0.00 0.00 66 1009.3
20260503002502 62 213 7.0 12.2 0.00 0.00 0.00 66 1009.3
20260503002001 63 232 5.2 14.8 0.00 0.00 0.00 65 1009.4
20260503001502 63 200 7.0 14.8 0.00 0.00 0.00 64 1009.4
20260503001001 63 360 2.6 13.0 0.00 0.00 0.00 64 1009.4
20260503000501 63 200 2.6 13.0 0.00 0.00 0.00 64 1009.4
20260502235500 63 227 5.2 13.9 0.00 0.00 0.00 64 1009.5
20260502235000 64 289 6.1 13.0 0.00 0.00 0.00 64 1009.6
20260502234000 64 181 3.5 13.9 0.00 0.00 0.00 64 1009.6
20260502233501 64 200 7.0 13.9 0.00 0.00 0.00 63 1009.7
20260502233000 64 230 3.5 13.0 0.00 0.00 0.00 64 1009.8
20260502232500 64 200 7.8 13.0 0.00 0.00 0.00 64 1009.8
20260502231959 64 167 7.0 14.8 0.00 0.00 0.00 63 1009.7
20260502231459 64 219 6.1 14.8 0.00 0.00 0.00 63 1009.8
20260502230959 64 234 8.7 16.5 0.00 0.00 0.00 62 1009.9
20260502230459 64 219 3.5 16.5 0.00 0.00 0.00 62 1010.0
20260502225959 65 202 7.8 13.9 0.00 0.00 0.00 62 1010.1
20260502225459 65 186 7.8 13.0 0.00 0.00 0.00 62 1010.1
20260502224959 65 172 7.8 13.9 0.00 0.00 0.00 61 1010.2
20260502224458 65 180 6.1 18.2 0.00 0.00 0.00 62 1010.3
20260502223958 64 178 8.7 18.2 0.00 0.00 0.00 62 1010.3
20260502223500 64 218 7.0 16.5 0.00 0.00 0.00 62 1010.3
20260502222958 64 219 10.4 19.1 0.00 0.00 0.00 63 1010.4
20260502222458 64 209 11.3 19.1 0.00 0.00 0.00 63 1010.4
20260502221459 64 263 11.3 14.8 0.00 0.00 0.00 63 1010.5
20260502220958 64 259 8.7 13.9 0.00 0.00 0.00 64 1010.5